Location: *
(38.9800°N, 16.0500°E)
Time: 07:08:41
(UTC+00:00)

Cosmos 389 Rocket - Pass Details

Date: 07 April 2020
Orbit: 443 x 476 km, 81.1° (Epoch: 25 May)

Event Time Altitude Azimuth Distance (km) Brightness Sun altitude
Exits shadow 02:15:08 43° 54° (NE) 672 3.6 -25.3°
Drops below altitude 10° 02:17:52 10° 20° (NNE) 1,625 5.9 -24.8°
Sets 02:19:58 0° 15° (NNE) 2,499 6.9 -24.5°
